GFSNGP_con_lsi_159.txt.gz
Lid_Strength_Index
12 12 12 13 13 12 13 13 16 15 15 13 11 10 9 8 7 7 8 10 10 10 11 11 11 11 11 9 8 7 7 8 8 8 8 8 9 8 8 8 7 7 7 8
14 12 12 14 11 11 11 13 13 13 14 10 8 8 8 8 8 10 11 11 11 11 11 10 10 9 9 9 8 7 7 7 7 8 8 9 9 9 9 9 8 8 8 9
17 13 13 16 13 11 12 12 12 15 13 9 10 9 8 8 10 11 11 11 10 10 10 10 9 9 9 8 7 7 7 7 8 8 9 9 9 9 9 10 9 9 10 10
17 15 20 12 9 9 11 11 11 11 10 9 9 8 8 8 10 10 10 9 9 9 9 9 10 9 8 7 7 7 8 8 8 9 9 9 9 10 10 10 10 10 10 10
17 18 14 11 11 12 13 13 10 10 9 9 8 9 9 9 8 8 9 9 8 8 9 9 9 8 7 8 7 8 8 9 9 9 10 10 10 11 10 10 10 9 10 10
15 18 20 13 10 8 9 15 9 9 9 9 8 12 11 9 9 8 8 8 9 9 10 9 9 8 8 8 8 9 8 8 9 9 9 10 11 10 10 10 9 8 9 10
16 17 14 11 9 8 15 14 9 8 8 8 10 8 8 8 8 8 9 9 10 9 10 9 8 8 9 9 9 9 8 8 9 10 10 10 11 11 10 11 11 11 11 11
15 17 19 8 9 13 10 8 8 8 8 8 8 8 8 9 9 9 10 9 9 9 9 9 8 8 9 9 9 8 9 9 9 10 9 10 11 12 11 11 12 12 12 12
14 14 9 7 8 7 7 8 8 8 8 8 8 9 9 10 10 10 9 9 9 9 10 9 9 8 9 9 9 9 10 11 10 10 10 11 12 12 12 12 12 12 12 13
12 10 9 8 7 6 7 7 7 7 7 8 9 9 10 11 11 10 9 9 9 9 10 10 9 8 9 8 8 9 11 11 11 12 12 12 12 12 12 13 13 13 12 13
11 10 9 7 7 7 7 7 7 7 8 9 9 10 10 10 10 10 10 10 9 9 9 9 9 9 9 8 9 10 11 11 12 12 12 13 13 12 12 13 12 13 13 13
13 10 10 9 9 6 7 8 8 8 9 8 8 10 10 10 10 10 10 10 10 9 9 9 9 9 9 9 10 11 12 12 12 13 13 13 13 13 11 11 11 12 12 11
10 9 10 9 6 5 7 8 7 8 8 9 8 9 9 10 10 9 9 9 10 8 8 9 10 9 9 9 10 11 12 13 13 13 13 13 12 12 13 12 11 11 12 11
9 8 9 10 10 7 7 7 7 7 7 8 8 8 8 9 9 9 9 9 9 9 10 10 9 10 10 10 11 11 12 12 13 13 11 11 11 12 12 13 11 11 11 11
9 9 10 10 9 9 6 6 7 7 7 8 8 9 10 10 10 10 10 10 10 11 10 10 11 11 10 10 11 11 12 13 13 12 12 12 12 13 13 11 11 11 11 11
9 9 10 11 11 10 10 8 9 10 10 10 11 11 11 11 11 12 11 11 12 14 13 13 13 12 11 11 11 11 11 11 11 12 12 12 13 13 13 12 12 12 12 12
11 11 11 11 11 12 12 11 10 11 11 11 12 11 12 12 12 12 13 13 13 14 14 14 14 12 11 11 12 11 11 12 13 11 12 13 13 13 11 12 12 12 12 12
10 10 10 10 11 11 11 11 11 11 12 12 12 12 13 13 13 13 13 13 13 13 14 14 14 13 12 12 12 11 10 11 11 12 12 13 13 12 12 12 12 12 12 12
9 10 10 10 11 11 11 11 11 11 12 12 13 14 14 14 14 14 13 13 14 14 15 14 12 13 13 12 12 12 10 10 10 11 12 13 12 12 12 12 12 12 12 12
9 9 9 10 10 11 12 11 12 13 12 13 13 14 15 15 15 15 14 14 14 14 13 14 14 14 13 12 12 12 10 11 11 11 12 13 13 13 13 13 13 12 12 12
10 10 10 11 11 11 11 11 12 13 13 13 14 15 15 15 15 15 15 15 14 13 13 13 13 13 13 13 13 12 11 12 12 12 13 13 14 13 13 12 12 13 14 14
9 10 11 11 12 12 12 13 13 14 14 15 15 15 15 15 15 15 14 15 16 15 14 14 14 15 14 15 12 12 12 12 12 13 13 13 12 12 12 12 13 14 14 14
9 10 11 12 13 14 13 14 14 14 15 15 15 15 15 15 15 16 16 14 14 15 14 15 15 15 16 13 12 13 12 12 12 12 13 12 11 12 13 14 13 14 14 15
9 10 11 11 12 13 15 15 15 14 14 14 15 15 16 16 16 16 15 15 15 15 15 15 15 15 15 12 12 12 12 12 12 12 12 13 12 13 14 14 14 15 16 16
9 10 11 12 13 14 14 14 14 14 14 14 14 15 14 14 15 15 15 15 16 15 15 16 15 15 13 12 12 13 13 13 13 14 14 14 15 15 14 15 16 16 16 16
9 10 10 11 12 13 14 14 15 15 15 15 15 15 15 15 15 15 15 15 14 14 14 14 13 13 12 13 13 13 13 13 13 13 13 14 14 15 15 16 16 16 16 16
10 10 11 12 12 12 13 15 15 15 17 18 15 15 14 15 15 15 14 14 13 14 13 13 12 13 13 13 13 13 13 13 14 14 14 15 16 16 16 16 17 16 16 16

GFSNGP_con_lsi_162.txt.gz
Lid_Strength_Index
13 12 12 13 13 13 14 14 16 15 14 12 11 10 9 8 7 7 8 8 9 9 10 10 10 10 11 11 9 8 7 7 8 8 8 8 8 8 7 7 7 7 8 8
15 12 13 14 13 12 12 12 13 14 14 10 8 8 8 8 7 7 8 8 9 10 10 11 11 11 11 10 9 7 7 8 7 8 8 8 8 8 8 8 8 8 8 9
17 13 14 17 14 12 12 12 13 16 13 10 10 9 8 8 7 8 8 9 10 10 11 11 11 11 10 9 7 7 7 7 8 8 8 8 8 8 9 9 9 9 9 9
17 15 21 13 10 11 12 12 11 11 10 9 9 8 7 6 6 7 8 10 11 11 11 11 10 10 8 7 7 7 8 8 8 8 9 9 9 9 9 9 9 9 9 9
18 18 15 12 12 12 13 14 10 11 10 9 8 8 9 6 6 8 10 11 12 11 11 10 9 7 7 8 7 8 8 8 8 9 9 9 9 9 9 9 9 9 9 9
16 19 20 12 10 8 9 16 9 9 9 9 8 12 10 8 8 9 10 11 11 11 10 9 8 7 8 8 8 8 8 8 8 8 9 9 9 9 9 9 9 8 9 9
16 17 15 11 9 8 15 15 9 8 8 8 9 8 9 9 11 10 10 11 10 9 9 9 8 8 8 8 8 8 8 8 8 9 9 9 10 10 10 10 11 10 10 10
15 17 18 9 9 13 10 8 8 7 7 9 9 9 9 9 10 11 11 10 10 10 10 9 8 8 8 9 8 8 8 8 9 8 8 10 10 11 11 11 11 10 10 10
13 14 9 7 8 7 6 8 7 8 8 8 9 9 10 10 10 10 11 10 10 9 9 8 8 8 9 9 8 9 9 9 9 9 10 10 11 11 12 11 11 10 11 11
12 10 10 8 7 6 6 7 6 7 7 8 9 9 10 10 10 10 10 10 9 9 9 9 9 8 8 9 8 9 10 10 10 11 11 11 11 11 11 11 11 11 11 11
11 10 9 7 8 6 7 7 7 7 7 8 9 9 9 10 10 10 10 10 9 9 9 9 8 9 8 8 9 9 10 10 10 11 12 12 12 12 12 12 11 11 11 11
13 10 10 9 9 6 7 8 8 9 9 9 9 10 10 10 10 10 10 10 9 9 9 9 9 9 9 9 9 9 10 11 10 12 12 12 12 12 12 12 11 12 11 11
11 9 9 9 7 6 7 8 7 8 8 9 9 9 9 10 9 9 9 9 10 9 9 9 9 10 9 9 9 10 11 11 10 11 11 12 12 12 12 11 11 11 12 11
8 9 9 10 10 6 6 7 7 8 9 9 9 9 9 9 9 10 9 9 9 9 9 9 9 10 10 10 10 11 11 10 10 11 11 11 11 11 11 11 10 10 11 11
9 9 10 10 9 7 7 7 8 9 9 9 9 9 9 10 9 9 9 9 9 10 9 10 10 10 9 9 10 11 12 12 11 11 11 12 12 12 11 10 11 11 10 11
9 10 10 11 11 10 7 8 9 10 9 9 10 9 9 10 10 10 10 10 11 12 12 12 12 11 10 10 11 11 11 13 12 12 12 12 11 11 11 11 11 11 11 11
11 11 11 12 12 11 11 10 10 11 10 11 11 11 11 11 12 13 13 13 13 13 13 13 13 11 11 11 11 11 11 11 14 12 12 11 12 11 11 11 11 11 11 12
10 10 10 11 12 12 12 12 11 11 12 11 11 11 12 12 14 14 14 13 13 14 14 13 13 12 11 11 11 10 11 11 11 11 11 11 11 11 11 11 11 11 12 13
10 11 11 11 11 12 12 12 12 12 12 12 13 14 13 13 14 14 13 14 14 14 14 13 12 13 12 12 12 11 9 10 10 11 11 13 11 11 11 11 12 12 12 12
10 10 10 11 11 12 13 12 12 13 13 13 14 14 15 15 15 14 13 14 14 13 13 13 13 13 12 12 12 11 10 10 11 12 12 12 12 12 12 13 12 12 12 12
10 10 10 11 11 12 12 12 12 13 14 14 14 15 15 15 15 15 14 15 14 13 13 13 12 12 12 13 12 11 10 11 11 12 12 13 13 13 13 13 13 13 13 13
9 10 11 11 12 13 13 13 14 14 15 15 15 15 15 15 15 15 15 15 15 15 13 13 13 15 14 14 12 11 10 11 11 12 12 13 13 12 13 13 14 14 13 13
9 10 11 12 13 14 14 14 14 14 15 15 15 15 15 15 15 15 15 14 15 15 14 14 15 15 15 12 12 11 11 11 12 12 12 12 12 13 13 14 14 13 14 14
9 10 11 12 12 13 15 14 14 14 14 14 15 15 14 15 15 15 14 15 15 14 14 14 14 15 15 12 11 11 11 11 11 11 12 14 13 14 14 14 15 15 15 16
9 10 11 12 13 14 14 14 14 14 14 14 14 14 14 14 15 15 14 14 15 14 14 15 15 15 13 11 12 12 12 12 12 13 14 14 14 14 14 15 15 15 15 15
10 10 10 10 12 13 13 13 15 15 15 15 15 14 14 14 14 14 14 14 14 14 14 14 13 13 12 12 12 13 13 14 14 14 14 14 14 15 15 15 15 15 15 15
10 10 11 11 11 12 12 13 14 14 15 15 15 14 14 14 14 14 14 14 14 14 13 13 12 13 13 13 14 14 14 14 14 14 14 15 15 15 15 15 15 15 15 15

GFSNGP_con_lsi_165.txt.gz
Lid_Strength_Index
11 11 12 12 12 12 13 12 15 12 13 10 8 8 8 7 7 7 7 8 8 8 8 7 7 7 7 8 7 6 6 5 5 4 4 4 4 4 4 4 5 4 5 4
13 13 13 14 12 12 12 11 12 11 13 8 7 7 8 8 8 8 8 8 8 7 7 7 8 8 8 8 7 6 5 5 4 4 4 4 4 4 5 5 5 5 5 4
17 13 14 16 13 12 11 10 11 14 10 8 9 9 8 8 7 8 7 8 9 7 7 8 8 8 8 7 6 6 5 5 5 5 5 5 5 5 5 5 5 5 5 4
17 15 20 13 9 9 10 10 9 9 9 8 8 7 7 6 7 7 7 8 8 8 8 8 8 7 6 6 6 5 5 5 5 5 5 5 5 5 5 5 5 5 5 4
18 18 15 12 11 12 12 13 9 10 9 8 7 7 8 5 5 7 7 8 8 8 8 8 7 6 7 6 5 6 5 5 5 5 5 5 5 5 5 5 5 6 5 5
16 19 20 13 10 8 9 16 9 8 9 9 8 12 10 6 6 8 8 9 10 8 7 7 7 6 5 6 5 5 6 6 5 5 5 5 5 5 5 5 6 6 6 5
16 17 14 10 9 8 15 15 9 8 8 8 9 7 6 7 8 9 10 9 8 7 7 7 6 5 5 6 6 5 6 5 5 5 5 5 5 5 5 6 6 6 6 6
14 16 18 8 9 13 10 8 7 7 7 7 7 6 7 7 8 10 11 9 8 8 7 6 5 6 6 6 5 6 6 6 5 5 6 5 5 6 6 6 6 7 6 6
14 14 9 7 8 7 7 7 7 7 7 7 8 8 8 9 10 10 10 9 7 8 7 6 6 5 6 6 5 6 6 6 6 6 6 6 6 6 6 6 6 6 6 6
12 10 10 8 8 8 6 6 6 6 6 6 7 8 10 10 9 9 8 8 7 7 7 7 6 5 5 5 5 6 6 6 6 6 6 6 7 7 7 6 6 7 7 6
11 9 8 8 9 9 6 6 6 6 7 7 7 9 9 9 9 8 8 7 7 7 7 6 5 6 6 6 6 6 7 6 6 6 6 6 7 7 7 8 8 6 7 6
12 10 10 10 9 7 7 6 7 7 8 7 8 8 8 9 8 8 8 7 7 6 6 6 6 6 6 6 6 6 7 6 6 6 6 6 7 8 12 12 12 13 12 9
10 9 9 8 8 6 7 6 7 7 8 8 8 9 9 9 9 9 8 8 7 7 6 6 6 6 6 6 6 6 7 6 6 7 6 6 6 6 8 10 12 12 12 12
8 8 9 10 10 7 7 6 6 8 8 9 8 8 8 9 9 9 9 8 8 8 8 7 7 7 7 6 6 6 6 9 6 6 6 6 6 6 6 7 10 11 12 11
9 9 10 9 9 6 7 7 8 9 9 9 8 9 9 9 9 10 9 8 8 9 9 8 7 8 7 7 7 7 7 7 6 7 7 7 7 6 7 9 10 10 9 11
9 9 10 11 11 10 8 9 8 9 8 9 9 9 9 10 10 11 10 10 9 10 10 9 10 9 9 8 8 8 7 10 9 7 8 7 8 8 8 9 9 8 8 9
10 11 11 12 12 12 11 10 10 9 9 9 8 9 10 11 11 12 12 12 12 11 10 10 10 8 8 7 7 7 7 8 12 8 8 8 8 8 8 10 9 8 9 10
10 10 11 11 11 12 12 12 11 11 11 10 10 10 10 11 13 13 13 13 13 12 11 9 9 8 8 8 7 7 7 8 8 8 8 8 8 8 8 8 8 9 10 12
10 10 11 11 11 12 12 12 12 12 12 12 12 13 12 13 13 14 13 13 13 13 12 10 12 10 8 9 8 7 7 7 7 8 8 10 8 7 8 9 9 10 10 11
9 10 10 11 11 12 13 13 12 12 12 12 12 13 15 15 15 14 13 14 13 12 11 10 10 9 9 9 11 7 7 7 7 8 9 8 8 9 10 12 11 10 10 11
8 9 10 11 12 12 12 12 13 14 13 13 14 15 15 15 15 15 15 15 14 13 11 12 11 10 9 10 9 8 8 7 8 9 10 8 10 9 11 11 11 11 11 11
7 7 8 10 11 13 13 13 13 14 14 15 15 15 14 15 15 15 15 15 14 14 12 11 10 13 11 14 10 9 8 8 8 9 10 9 9 11 11 11 12 12 12 11
6 7 8 10 11 13 13 13 14 14 14 14 15 15 15 15 15 15 15 14 12 13 12 12 14 15 15 9 8 8 7 8 9 10 11 10 9 11 11 12 12 12 12 12
6 7 8 9 10 12 14 13 13 14 14 14 15 15 15 15 15 13 12 14 14 13 11 11 13 15 15 10 9 8 8 9 9 9 10 12 10 11 12 12 12 12 12 12
6 6 8 9 10 12 12 13 13 14 14 15 15 14 14 13 13 14 12 13 15 13 12 14 15 15 12 11 10 9 9 9 9 10 10 11 11 12 12 11 11 11 12 12
6 6 7 7 9 10 11 12 13 13 14 14 13 13 13 12 13 12 13 13 13 13 12 12 12 12 11 10 10 10 11 12 12 11 12 11 11 11 11 12 12 12 12 13
6 7 7 7 8 9 9 11 12 13 12 12 13 13 12 12 13 13 14 13 13 12 12 12 12 13 12 12 12 12 12 13 12 11 11 11 11 11 11 12 12 12 12 12

GFSNGP_con_lsi_168.txt.gz
Lid_Strength_Index
11 10 11 11 10 10 11 10 12 11 11 9 8 5 5 7 7 7 7 6 5 5 4 3 3 2 3 3 4 4 4 3 2 1 2 2 2 2 2 2 3 2 2 2
12 12 13 13 10 9 9 9 9 9 10 6 6 6 7 8 7 7 7 6 5 4 4 4 3 4 4 5 5 4 4 4 3 3 3 2 2 2 3 3 2 2 2 2
16 13 13 17 11 10 9 8 8 11 9 6 8 6 8 8 7 7 6 6 5 4 4 3 3 4 5 5 5 4 4 4 4 3 3 2 3 3 3 3 2 2 2 2
17 15 20 13 7 8 9 8 7 8 7 7 7 7 7 6 6 6 6 6 5 4 3 3 4 5 5 5 5 5 4 4 4 3 3 3 3 3 3 2 2 2 3 3
17 17 15 13 11 11 10 10 7 7 7 7 7 7 8 6 5 5 5 5 4 3 3 4 5 5 5 5 5 5 4 4 4 3 3 3 3 3 3 3 3 3 3 3
16 19 21 14 10 8 8 15 9 7 8 8 8 12 10 6 5 5 5 5 5 5 5 5 5 5 5 6 5 5 5 4 4 3 3 3 3 2 2 3 3 3 3 3
16 17 15 11 8 7 17 15 8 7 7 8 8 6 6 5 7 7 7 6 6 5 5 5 4 5 6 5 5 4 4 4 3 3 3 2 2 2 3 3 3 3 3 3
15 17 19 8 9 13 10 8 8 7 6 7 6 6 7 7 8 9 8 7 6 5 5 4 5 5 5 5 4 4 4 3 3 3 3 3 3 3 3 3 3 3 3 3
13 14 9 8 8 8 7 8 7 7 6 5 5 5 6 7 8 9 8 7 5 5 5 5 5 4 5 4 4 3 3 3 3 3 4 4 3 3 4 3 3 3 3 3
12 10 10 8 8 8 7 6 6 5 5 5 5 5 5 6 7 8 8 6 5 6 6 5 5 4 4 4 4 3 4 4 4 4 4 4 3 3 4 4 4 3 4 3
11 10 10 7 9 9 8 6 6 5 5 6 5 6 5 6 8 8 7 5 5 6 5 6 5 4 4 4 3 3 3 4 4 5 4 4 4 5 5 7 8 5 5 5
13 10 11 11 9 8 7 6 6 6 6 6 6 7 7 8 8 7 7 6 5 5 6 5 5 5 4 4 3 4 5 4 5 4 5 4 5 6 11 10 11 12 12 10
10 8 9 8 8 7 7 6 7 7 6 7 8 7 7 8 7 7 6 5 6 5 5 5 5 5 4 3 4 4 5 5 5 5 5 4 4 5 6 9 11 11 13 13
7 7 9 9 10 8 6 6 7 7 6 7 8 7 7 7 6 6 6 6 5 5 5 5 5 5 4 4 4 4 4 8 5 5 4 4 4 4 5 7 7 8 12 13
8 8 9 9 9 7 7 6 7 8 8 8 8 9 8 8 7 7 6 6 6 6 6 6 6 5 4 4 4 4 4 5 4 4 4 5 4 5 5 6 8 8 10 12
8 8 9 10 11 10 9 7 8 9 8 9 9 9 8 9 9 9 8 8 9 9 8 7 7 7 5 4 4 4 4 9 7 4 5 5 5 5 6 7 8 9 8 8
10 12 11 11 12 11 11 10 9 8 9 9 10 10 10 10 10 11 11 11 10 10 9 9 8 7 6 6 6 6 5 5 10 5 5 5 5 5 6 7 7 7 7 9
10 10 10 11 11 12 12 11 11 9 9 9 10 10 10 11 12 13 13 12 11 10 10 9 7 6 6 5 5 5 5 5 5 5 5 5 5 5 6 7 7 6 8 10
9 10 11 11 11 11 12 12 11 11 10 10 11 12 12 12 13 13 12 12 13 13 11 9 12 8 6 8 7 5 5 5 5 5 5 9 6 6 6 6 6 7 8 9
8 10 10 11 11 11 12 12 12 13 12 11 12 13 14 14 14 13 13 14 12 12 10 10 8 8 7 9 10 5 5 5 5 6 6 6 6 6 6 9 7 7 8 9
7 8 10 11 12 12 12 12 12 14 14 13 14 14 14 15 15 14 15 15 14 12 11 11 8 8 7 9 8 5 5 6 6 6 7 7 7 7 7 8 8 8 8 9
5 6 7 8 10 12 13 13 14 14 14 14 14 15 15 15 15 15 15 15 14 15 11 9 9 13 9 14 6 6 6 6 6 7 7 7 7 7 8 8 8 8 9 9
4 5 6 6 7 9 10 11 13 14 15 15 16 15 15 16 15 16 16 15 14 14 12 12 15 15 15 9 7 7 7 7 7 7 7 7 7 8 9 9 9 9 8 9
4 5 5 6 6 7 10 12 12 13 14 15 15 15 15 15 15 15 15 15 15 14 12 12 12 15 16 9 9 7 7 7 7 7 8 11 8 9 9 9 9 9 9 10
4 4 5 5 6 7 9 11 13 13 14 14 14 14 14 13 14 14 13 13 15 13 11 15 15 15 10 10 9 7 7 7 7 7 9 8 9 9 9 9 8 9 9 10
4 4 4 5 5 6 8 10 12 12 13 13 13 13 12 12 13 12 13 13 12 13 12 11 11 11 11 10 9 8 8 8 8 8 8 9 9 9 9 8 9 10 10 10
3 5 4 5 5 6 6 8 10 11 11 12 13 12 12 12 12 12 13 12 12 12 12 11 11 12 10 10 10 9 10 9 10 9 8 8 8 8 9 9 9 10 10 10

GFSNGP_con_lsi_171.txt.gz
Lid_Strength_Index
10 10 10 12 12 10 10 9 11 9 10 10 9 7 5 4 6 7 7 6 5 4 4 3 3 2 2 1 1 1 2 2 1 1 1 1 2 1 1 1 1 1 1 1
13 10 10 13 12 11 9 9 9 9 10 9 7 6 5 6 6 7 7 6 5 4 4 3 3 2 2 1 2 2 3 2 2 2 2 2 2 1 2 1 1 1 1 1
16 13 13 16 12 10 9 8 8 11 9 8 8 6 7 7 7 7 6 5 5 4 3 3 3 2 2 2 3 4 3 3 2 2 3 2 2 2 2 1 1 1 1 1
17 15 21 12 8 7 8 7 6 7 7 7 6 6 6 6 7 6 6 5 4 4 3 3 2 2 2 3 4 4 3 3 2 3 3 3 2 2 1 1 2 2 2 2
18 18 14 12 10 9 9 8 6 7 6 5 5 6 8 6 5 5 5 4 3 3 3 2 2 3 4 4 4 4 4 4 3 3 3 3 3 2 1 1 2 2 2 2
16 19 20 14 10 7 7 12 6 6 6 5 5 12 10 6 5 5 4 4 4 3 3 2 2 2 4 4 4 5 4 4 4 3 3 3 2 2 1 2 2 2 3 2
16 18 15 10 9 6 15 13 8 7 7 5 8 8 7 5 5 5 4 4 3 3 3 2 2 3 4 4 5 4 4 4 4 4 3 2 1 1 2 2 3 3 3 2
15 17 18 8 9 13 10 8 7 7 6 6 7 6 6 6 5 5 5 4 3 4 3 3 3 3 5 5 5 4 4 4 3 3 3 2 2 2 2 2 3 3 2 2
13 14 9 9 9 7 7 8 7 7 6 6 6 6 6 7 6 5 4 4 3 3 4 4 4 4 5 5 4 4 4 4 3 3 3 2 2 2 3 3 3 3 3 3
12 10 11 10 8 8 7 7 6 5 5 5 5 5 6 7 7 6 5 4 4 4 5 5 4 5 5 4 4 4 4 4 3 3 3 2 2 2 3 4 3 3 4 4
11 10 10 8 9 8 8 5 6 5 4 4 5 5 5 7 7 7 5 3 3 4 5 5 4 5 4 4 3 4 4 4 3 3 3 3 5 7 5 8 8 4 6 5
13 10 11 10 9 8 9 7 6 6 6 5 4 5 5 7 7 6 5 3 4 5 5 5 5 5 5 4 3 4 4 4 4 3 3 4 5 7 12 11 12 12 12 9
10 8 8 8 8 8 7 7 7 6 6 7 6 4 5 7 6 6 5 4 4 5 5 5 4 5 4 3 3 4 4 4 4 4 3 4 5 6 7 10 12 12 13 12
6 7 9 9 10 8 7 7 6 8 7 7 6 5 5 6 6 6 5 4 4 5 5 5 5 5 4 3 4 4 4 7 4 4 3 4 4 4 5 6 6 8 13 12
6 7 8 9 9 8 7 7 8 8 8 8 7 6 5 6 6 6 5 4 4 5 6 6 5 5 4 4 4 4 4 4 3 3 3 4 4 4 5 6 6 8 10 12
7 8 8 9 10 10 9 9 8 8 8 8 9 8 7 7 7 6 5 5 5 6 5 5 5 4 4 4 4 4 4 8 6 3 4 4 4 4 5 6 6 7 7 7
9 11 11 10 10 11 11 10 9 8 8 9 9 9 9 9 9 9 8 8 8 7 7 7 7 6 5 4 4 4 4 5 11 3 4 4 4 4 5 6 6 7 7 10
8 9 10 11 11 12 12 11 10 9 9 9 9 10 10 11 11 11 10 9 10 9 9 8 8 7 7 6 5 5 4 4 4 4 4 5 5 5 5 6 7 7 7 10
9 10 10 11 10 11 12 12 11 11 10 10 10 11 11 12 12 12 12 11 11 11 10 9 11 9 6 9 7 5 4 4 4 4 5 8 5 4 5 6 6 7 7 8
8 9 10 11 11 11 11 11 12 12 12 12 13 13 15 15 14 13 12 13 12 12 10 10 8 7 6 7 9 4 4 5 5 5 5 5 5 5 5 8 6 7 7 7
7 8 10 11 12 12 11 11 12 13 13 13 14 15 14 15 16 15 15 15 14 12 12 11 8 7 6 8 7 5 5 5 5 5 5 5 5 6 6 6 6 7 7 7
6 6 6 7 10 12 12 12 12 12 13 14 14 14 15 15 15 16 15 15 14 15 12 10 10 14 11 15 7 5 5 5 6 6 6 6 6 6 6 6 7 7 7 7
5 5 5 6 6 8 9 11 12 13 14 15 15 16 16 16 15 15 16 15 14 14 13 13 15 16 16 9 7 6 6 6 6 6 6 6 7 7 7 7 7 7 7 7
4 4 5 5 5 6 8 10 11 12 13 14 15 15 16 16 16 16 15 15 16 15 13 14 15 16 16 9 9 8 7 6 6 6 7 10 7 7 6 7 8 7 7 8
3 4 4 4 5 6 8 9 10 11 13 14 14 14 14 14 14 15 14 14 15 14 13 16 15 15 13 10 9 8 7 7 6 7 7 7 7 7 8 8 7 7 7 8
3 3 3 3 4 5 6 7 9 10 10 11 12 12 13 13 13 12 12 13 13 14 13 12 12 12 11 10 10 8 7 8 7 7 8 7 8 7 8 8 7 8 8 9
2 4 3 4 4 4 5 6 7 8 8 8 10 10 11 12 12 13 14 13 13 13 12 12 12 12 11 10 9 9 8 8 9 7 7 7 7 7 7 7 8 8 9 10

GFSNGP_con_lsi_174.txt.gz
Lid_Strength_Index
11 10 10 11 12 10 11 10 12 11 11 9 7 7 7 6 6 6 7 6 6 6 5 4 4 3 2 2 2 1 2 2 2 1 1 1 1 1 1 1 1 1 1 2
14 11 11 12 11 11 11 11 10 9 10 7 6 6 6 6 6 7 7 6 6 5 4 4 4 3 3 2 2 1 2 3 2 1 1 2 2 2 2 1 1 1 1 3
17 12 14 17 13 12 11 10 9 11 8 6 7 8 7 6 6 7 6 6 6 5 4 4 3 3 3 3 2 3 3 3 2 2 2 3 3 2 2 1 1 1 2 3
17 15 21 12 9 9 11 9 8 7 7 6 7 6 6 6 7 7 6 5 5 4 4 3 3 3 3 3 3 4 4 3 2 2 3 3 3 3 2 2 2 2 2 3
18 18 15 12 11 12 12 11 7 7 6 6 7 6 7 5 5 6 5 4 4 3 3 3 3 3 3 3 4 4 4 3 3 3 3 3 3 3 2 3 3 3 3 3
16 19 21 15 10 8 9 15 8 7 6 7 7 9 8 5 5 5 4 4 4 3 3 3 3 3 4 4 5 5 3 3 3 3 3 3 2 2 2 2 3 3 3 3
16 17 15 11 9 7 15 15 8 7 8 7 7 7 6 6 6 4 4 4 3 3 3 3 3 3 4 5 5 4 3 3 3 3 3 3 3 3 2 2 2 3 3 3
15 17 18 10 9 13 10 8 7 7 7 7 6 6 6 6 6 5 5 5 4 4 3 4 3 4 5 6 4 3 3 3 3 3 3 3 4 3 3 3 3 3 3 4
13 14 9 9 9 8 7 8 7 7 6 6 7 7 6 6 5 5 6 5 5 5 5 5 3 4 6 5 4 4 4 4 4 3 3 3 3 4 4 2 3 3 3 4
11 10 10 10 9 8 7 7 6 5 6 6 6 6 6 5 5 5 5 6 6 5 6 5 4 5 5 5 4 4 4 4 4 4 4 4 4 3 3 4 3 3 4 4
11 9 10 9 10 9 8 6 6 5 5 5 5 6 6 5 5 4 4 5 5 6 6 5 5 6 5 5 4 4 4 4 4 4 7 8 10 7 8 11 9 7 6 9
13 10 10 10 9 8 9 8 6 6 6 5 4 5 6 5 4 4 4 4 5 5 5 5 6 6 5 4 4 5 5 5 5 4 5 6 7 10 13 12 13 14 13 11
9 8 8 9 9 8 9 7 6 6 6 5 5 4 5 6 5 5 4 4 5 5 5 5 5 5 4 4 4 4 5 4 4 4 5 6 6 8 10 13 14 14 14 13
7 7 8 9 11 9 8 7 6 6 6 6 6 5 5 6 6 5 4 4 4 5 5 5 5 5 4 4 4 3 4 7 4 5 5 5 5 6 7 9 10 12 13 12
7 8 8 8 9 10 8 8 8 8 8 8 6 6 5 6 7 6 5 4 5 5 5 5 5 4 3 4 4 4 4 4 4 4 4 4 4 4 6 6 8 10 11 13
8 9 9 9 10 11 10 10 9 8 8 9 8 7 7 7 7 6 5 5 6 6 5 5 5 4 3 4 4 4 4 7 6 4 4 4 5 5 6 6 7 8 8 8
10 11 11 11 10 11 12 10 9 8 9 9 9 8 8 8 9 8 7 6 5 5 5 5 5 3 4 4 4 4 4 5 10 5 4 4 5 5 5 6 7 7 9 12
9 9 10 11 11 11 12 11 10 9 9 9 10 9 10 9 10 10 9 8 8 7 6 6 5 4 4 4 4 5 5 5 5 5 4 4 4 4 5 6 7 7 8 10
8 9 10 10 10 11 11 11 11 11 9 9 10 12 11 11 11 10 9 10 10 10 9 7 9 6 6 9 6 5 6 5 5 6 5 8 5 5 6 6 7 6 8 9
7 8 9 10 10 11 11 11 11 11 11 11 12 13 14 13 13 13 12 13 12 11 9 9 6 6 7 8 10 7 5 6 6 6 6 5 5 5 6 8 6 7 7 7
7 7 9 10 11 11 11 11 12 12 12 13 14 15 16 15 15 15 15 15 14 12 11 12 12 10 10 11 9 7 5 5 6 5 6 5 6 5 6 6 6 6 7 7
6 6 6 7 9 11 12 12 12 12 13 14 15 15 15 16 16 16 16 16 14 15 13 13 14 16 14 14 7 5 4 5 6 5 6 5 6 6 6 6 7 7 7 6
5 5 5 6 7 8 9 11 12 13 14 14 14 15 15 16 16 16 16 16 15 15 15 15 16 16 17 9 7 6 5 5 6 6 6 5 6 6 6 7 7 7 7 7
5 5 5 5 5 7 9 10 11 12 13 14 14 14 15 16 16 16 16 16 16 15 15 15 16 16 16 10 9 8 7 6 6 6 6 9 6 7 7 7 7 7 7 8
4 4 4 5 6 7 9 9 10 11 12 14 14 14 14 13 14 16 15 16 16 14 14 15 15 16 14 11 10 9 8 7 7 7 7 7 7 7 7 7 7 7 8 8
3 4 4 4 5 6 7 9 10 10 10 10 11 11 12 13 13 13 13 14 14 14 12 13 13 14 13 11 11 10 9 9 8 7 8 8 7 7 7 7 8 8 8 8
3 4 4 4 4 4 5 7 8 8 8 9 10 9 9 10 11 12 13 12 12 12 12 12 12 12 11 11 11 10 9 8 10 8 8 8 7 7 7 7 8 8 8 9